sat.trackr.live / text

‹ back to catalog

HERMES-1

NORAD 63242 · 2025-052AJ

PAYLOAD ACTIVE UNKNOWN

§ Identity

Operator
Country
IT
Launch date
2025-03-15
Launch site
AFWTR
Launch vehicle
Mass (kg)
RCS (m²)

External: N2YO · Heavens-Above · Gunter

§ Orbital elements

Epoch: 2026-09-22T22:07:38.879328Z

Period
94.59 min
Inclination
97.3748°
Eccentricity
0.0006593
Mean motion
15.22332748 rev/d
Perigee alt
494.3 km
Apogee alt
503.3 km
Semi-major
6,876.9 km
B*
1.4118e-4
RAAN
155.7491°
Arg perigee
187.0714°
Mean anomaly
173.0431°
Rev number
8,466

§ Raw data

HERMES-11 63242U 25052AJ  26265.92197777  .00003187  00000+0  14118-3 0  99972 63242  97.3748 155.7491 0006593 187.0714 173.0431 15.22332748 84660

JSON: /api/v1/satellites/63242 · /tle

For live sub-satellite position, see the globe view (requires WebGL).

§ Visibility from observer

Set your observer location to see the next 7 days of passes ≥ 10°. The values pass through the URL so the page stays shareable.

No JS? Fill the form by hand. The geolocation button needs JavaScript.

§ Radio — SatNOGS DB

ModeDescriptionDownlinkUplink
GFSK Mode U - Transmitter 401.500 MHz

1 transmitter · refreshed weekly from db.satnogs.org